Weather History for KBGE - November, 2012

Change the Weather History Date:

Wednesday, November 21, 2012

  Actual Average (KMAI) Record (KMAI)
Temperature  
Mean Temperature 60 °F 59 °F  
Max Temperature 77 °F 70 °F - ()
Min Temperature 44 °F 47 °F - ()
Degree Days  
Heating Degree Days 4    
Month to date heating degree days  
Since 1 July heating degree days  
Cooling Degree Days 0    
Month to date cooling degree days  
Year to date cooling degree days  
Growing Degree Days 10 (Base 50)    
Moisture  
Dew Point 48 °F    
Average Humidity 73    
Maximum Humidity 100    
Minimum Humidity 34    
Precipitation  
Precipitation 0.00 in 0.15 in - ()
Month to date precipitation 2.78  
Year to date precipitation 48.33  
Sea Level Pressure  
Sea Level Pressure 30.12 in    
Wind  
Wind Speed 3 mph (NNW)    
Max Wind Speed 12 mph    
Max Gust Speed -    
Visibility 9 miles    
Events      
T = Trace of Precipitation, MM = Missing Value Source: NWS Daily Summary

Daily Weather History Graph

Daily Weather History Graph

Search for Another Location

Airport or City:

Trip Planner

Search our weather history database for the weather conditions in past years. The results will help you decide how hot, cold, wet, or windy it might be!

Date:

Astronomy

Nov. 21, 2012 Rise Set
Actual Time 7:10 AM EST 5:37 PM EST
Civil Twilight 6:45 AM EST 6:03 PM EST
Nautical Twilight 6:15 AM EST 6:33 PM EST
Astronomical Twilight 5:46 AM EST 7:02 PM EST
Moon 1:32 PM EST (11/21) 12:53 AM EST (11/21)
Length of Visible Light 11h 18m
Length of Day
10h 27m
First Quarter, 61% of the Moon is Illuminated
Nov 21
First Quarter
Nov 28
Full
Dec 6
Last Quarter
Dec 13
New
Dec 20
First Quarter

Hourly Weather History & Observations

Time (EST) Temp. Dew Point Humidity Pressure Visibility Wind Dir Wind Speed Gust Speed Precip Events Conditions
12:15 AM 53.6 °F 51.8 °F 94% 30.12 in 7.0 mi WNW 4.6 mph - N/A   Clear
12:35 AM 57.2 °F 55.4 °F 94% 30.12 in 7.0 mi WNW 4.6 mph - N/A   Clear
12:55 AM 55.4 °F 53.6 °F 94% 30.11 in 7.0 mi Calm Calm - N/A   Clear
1:15 AM 53.6 °F 53.6 °F 100% 30.10 in 7.0 mi Calm Calm - N/A   Clear
1:35 AM 53.6 °F 53.6 °F 100% 30.10 in 7.0 mi Calm Calm - N/A   Clear
1:55 AM 51.8 °F 51.8 °F 100% 30.10 in 5.0 mi West 3.5 mph - N/A   Clear
2:15 AM 51.8 °F 51.8 °F 100% 30.10 in 3.0 mi West 3.5 mph - N/A   Clear
2:35 AM 51.8 °F 51.8 °F 100% 30.10 in 3.0 mi WNW 4.6 mph - N/A   Clear
2:55 AM 51.8 °F 51.8 °F 100% 30.10 in 7.0 mi NW 4.6 mph - N/A   Clear
3:15 AM 53.6 °F 53.6 °F 100% 30.09 in 10.0 mi NNW 4.6 mph - N/A   Clear
3:35 AM 53.6 °F 51.8 °F 94% 30.10 in 10.0 mi NW 4.6 mph - N/A   Clear
3:55 AM 51.8 °F 50.0 °F 94% 30.10 in 7.0 mi WNW 3.5 mph - N/A   Clear
4:15 AM 51.8 °F 50.0 °F 94% 30.10 in 10.0 mi WNW 3.5 mph - N/A   Clear
4:35 AM 50.0 °F 48.2 °F 94% 30.09 in 7.0 mi Calm Calm - N/A   Clear
4:55 AM 50.0 °F 48.2 °F 94% 30.11 in 7.0 mi Calm Calm - N/A   Clear
5:15 AM 50.0 °F 48.2 °F 94% 30.11 in 5.0 mi Calm Calm - N/A   Clear
5:35 AM 46.4 °F 46.4 °F 100% 30.11 in 5.0 mi Calm Calm - N/A   Clear
5:55 AM 46.4 °F 44.6 °F 93% 30.11 in 4.0 mi Calm Calm - N/A   Clear
6:15 AM 44.6 °F 44.6 °F 100% 30.11 in 7.0 mi Calm Calm - N/A   Clear
6:35 AM 46.4 °F 44.6 °F 93% 30.11 in 7.0 mi Calm Calm - N/A   Clear
6:55 AM 44.6 °F 44.6 °F 100% 30.11 in 7.0 mi Calm Calm - N/A   Clear
7:15 AM 44.6 °F 44.6 °F 100% 30.12 in 7.0 mi Calm Calm - N/A   Clear
7:35 AM 44.6 °F 44.6 °F 100% 30.13 in 10.0 mi Calm Calm - N/A   Clear
7:55 AM 46.4 °F 44.6 °F 93% 30.14 in 7.0 mi Calm Calm - N/A   Clear
8:15 AM 50.0 °F 48.2 °F 94% 30.14 in 5.0 mi Calm Calm - N/A   Clear
8:35 AM 51.8 °F 51.8 °F 100% 30.15 in 7.0 mi Calm Calm - N/A   Clear
8:55 AM 53.6 °F 51.8 °F 94% 30.15 in 10.0 mi Calm Calm - N/A   Clear
9:15 AM 57.2 °F 51.8 °F 82% 30.15 in 10.0 mi NW 3.5 mph - N/A   Clear
9:35 AM 59.0 °F 51.8 °F 77% 30.16 in 10.0 mi NNW 4.6 mph - N/A   Clear
9:55 AM 60.8 °F 51.8 °F 72% 30.16 in 10.0 mi North 3.5 mph - N/A   Clear
10:15 AM 62.6 °F 50.0 °F 63% 30.16 in 10.0 mi North 3.5 mph - N/A   Clear
10:35 AM 64.4 °F 51.8 °F 64% 30.16 in 10.0 mi North 3.5 mph - N/A   Clear
10:55 AM 64.4 °F 50.0 °F 59% 30.16 in 10.0 mi Calm Calm - N/A   Clear
11:15 AM 68.0 °F 48.2 °F 49% 30.15 in 10.0 mi Calm Calm - N/A   Clear
11:35 AM 69.8 °F 50.0 °F 49% 30.15 in 10.0 mi NW 6.9 mph - N/A   Clear
12:15 PM 71.6 °F 50.0 °F 46% 30.13 in 10.0 mi North 5.8 mph - N/A   Clear
12:35 PM 71.6 °F 48.2 °F 43% 30.12 in 10.0 mi NNW 4.6 mph - N/A   Clear
1:15 PM 73.4 °F 46.4 °F 38% 30.11 in 10.0 mi NNE 8.1 mph - N/A   Clear
1:35 PM 73.4 °F 46.4 °F 38% 30.10 in 10.0 mi North 3.5 mph - N/A   Clear
1:55 PM 73.4 °F 46.4 °F 38% 30.09 in 10.0 mi North 8.1 mph - N/A   Clear
2:15 PM 73.4 °F 46.4 °F 38% 30.08 in 10.0 mi North 10.4 mph - N/A   Clear
2:35 PM 73.4 °F 46.4 °F 38% 30.08 in 10.0 mi NNW 8.1 mph - N/A   Clear
2:55 PM 71.6 °F 44.6 °F 38% 30.08 in 10.0 mi NNW 9.2 mph - N/A   Scattered Clouds
3:15 PM 77.0 °F 46.4 °F 34% 30.08 in 10.0 mi North 8.1 mph - N/A   Scattered Clouds
3:35 PM 73.4 °F 44.6 °F 36% 30.07 in 10.0 mi NNW 11.5 mph - N/A   Scattered Clouds
3:55 PM 73.4 °F 44.6 °F 36% 30.08 in 10.0 mi North 9.2 mph - N/A   Clear
4:15 PM 73.4 °F 44.6 °F 36% 30.08 in 10.0 mi North 10.4 mph - N/A   Clear
4:55 PM 71.6 °F 44.6 °F 38% 30.08 in 10.0 mi North 10.4 mph - N/A   Clear
5:15 PM 71.6 °F 46.4 °F 41% 30.08 in 10.0 mi NNE 5.8 mph - N/A   Clear
5:35 PM 69.8 °F 44.6 °F 40% 30.08 in 10.0 mi NNE 5.8 mph - N/A   Clear
5:55 PM 68.0 °F 44.6 °F 43% 30.09 in 10.0 mi North 4.6 mph - N/A   Clear
6:15 PM 66.2 °F 44.6 °F 46% 30.10 in 10.0 mi North 4.6 mph - N/A   Clear
6:35 PM 62.6 °F 44.6 °F 52% 30.11 in 10.0 mi Calm Calm - N/A   Clear
6:55 PM 62.6 °F 44.6 °F 52% 30.11 in 10.0 mi Calm Calm - N/A   Clear
7:15 PM 60.8 °F 46.4 °F 59% 30.11 in 10.0 mi North 3.5 mph - N/A   Clear
7:35 PM 59.0 °F 46.4 °F 63% 30.12 in 10.0 mi NNW 3.5 mph - N/A   Clear
7:55 PM 57.2 °F 46.4 °F 67% 30.12 in 10.0 mi NW 3.5 mph - N/A   Clear
8:15 PM 55.4 °F 46.4 °F 72% 30.14 in 10.0 mi Calm Calm - N/A   Clear
8:35 PM 55.4 °F 46.4 °F 72% 30.14 in 10.0 mi Calm Calm - N/A   Clear
8:55 PM 53.6 °F 44.6 °F 72% 30.14 in 10.0 mi Calm Calm - N/A   Clear
9:15 PM 53.6 °F 44.6 °F 72% 30.15 in 10.0 mi Calm Calm - N/A   Clear
9:35 PM 51.8 °F 44.6 °F 76% 30.15 in 10.0 mi Calm Calm - N/A   Clear
9:55 PM 53.6 °F 44.6 °F 72% 30.15 in 10.0 mi Calm Calm - N/A   Clear
10:15 PM 50.0 °F 44.6 °F 82% 30.16 in 10.0 mi Calm Calm - N/A   Clear
10:35 PM 50.0 °F 44.6 °F 82% 30.16 in 10.0 mi Calm Calm - N/A   Clear
10:55 PM 50.0 °F 44.6 °F 82% 30.16 in 10.0 mi Calm Calm - N/A   Clear
11:15 PM 50.0 °F 44.6 °F 82% 30.16 in 10.0 mi Calm Calm - N/A   Clear
11:35 PM 46.4 °F 42.8 °F 87% 30.16 in 10.0 mi Calm Calm - N/A   Clear
11:55 PM 46.4 °F 42.8 °F 87% 30.16 in 10.0 mi Calm Calm - N/A   Clear